Flag for Germany Weather past 2 weeks in Deggendorf, Bavaria, Germany

Now
66 °F

Overcast.


Feels Like: 66 °F
Forecast: 59 / 72 °F
Wind: 3 mph from Northwest

Location: Straubing

Current Time: Jul 31, 2014 at 1:44:18 AM

Latest Report: Jul 31, 2014 at 1:00 AM


Visibility: 5 mi

Pressure: 29.83 "Hg

Humidity: 94%

Dew point: 64 °F

Location of DeggendorfLocation

Historic Weather in Deggendorf — Graph

°F

Deggendorf temperature yesterday

Maximum temperature yesterday: 74 °F (at 3:00 PM)
Minimum temperature yesterday: 65 °F (at 6:00 AM)
Average temperature yesterday: 68 °F

Past Weeks' High & Low Weather Summary

 TemperatureHumidityPressure
High90 °F (Jul 20, 3:00 PM)96% (Jul 22, 1:00 AM)30.17 "Hg (Jul 22, 1:00 AM)
Low53 °F (Jul 24, 6:00 AM)24% (Jul 20, 4:00 PM)29.67 "Hg (Jul 29, 6:00 PM)
Average70 °F71%29.91 "Hg
* Reported Midnight between Jul 15 and Jul 16 — Midnight between Jul 30 and Jul 31, Deggendorf, Weather by CustomWeather, © 2014

Note: Actual official high and low records may vary slightly from our data, if they occured in-between our weather recording intervals... More about our weather records

Advertising

Deggendorf weather history for previous 24 hours

 ConditionsComfort  
Time TempWeatherWind HumidityBarometerVisibility
12:00 AM
Jul 31
66 °FLight rain. Overcast.2 mph96%29.82 "Hg2 mi
10:00 PM
Jul 30
67 °FOvercast.2 mph90%29.80 "Hg6 mi
9:00 PM69 °FOvercast.2 mph90%29.78 "Hg6 mi
8:00 PM70 °FLight rain. Overcast.1 mph86%29.76 "Hg4 mi
7:00 PM71 °FLight rain. Overcast.1 mph85%29.75 "Hg6 mi
6:00 PM70 °FLight rain. Overcast.1 mph88%29.75 "Hg5 mi
5:00 PM69 °FLight rain. Overcast.2 mph90%29.75 "Hg7 mi
4:00 PM71 °FLight rain. Overcast.5 mph81%29.74 "Hg4 mi
3:00 PM74 °FOvercast.3 mph69%29.73 "Hg10 mi
2:00 PM73 °FOvercast.3 mph70%29.73 "Hg10 mi
1:00 PM72 °FOvercast.3 mph73%29.73 "Hg9 mi
12:00 PM69 °FOvercast.5 mphN/A29.74 "HgN/A
11:00 AM67 °FLow clouds.5 mph87%29.74 "Hg6 mi
10:00 AM66 °FLow clouds.3 mph94%29.74 "Hg3 mi
9:00 AM65 °FDrizzle. Low clouds.2 mph93%29.73 "Hg2 mi
8:00 AM66 °FLow clouds.2 mph91%29.73 "Hg3 mi
7:00 AM65 °FLow clouds.2 mph90%29.73 "Hg6 mi
6:00 AM65 °FLow clouds.5 mph89%29.71 "Hg7 mi
4:00 AM65 °FLow clouds.3 mph86%29.72 "Hg13 mi
3:00 AM66 °FLow clouds.3 mph87%29.71 "Hg12 mi
2:00 AM66 °FOvercast.5 mph87%29.72 "Hg10 mi
1:00 AM67 °FOvercast.3 mph85%29.71 "Hg12 mi
Weather by CustomWeather, © 2014

See weather overviewHow to use our weather pages